Weather History for Elizabethton, TN

Change the Weather History Date:

Monday, October 28, 2013

  Actual Average (KTRI) Record (KTRI)
Temperature  
Mean Temperature 58 °F 53 °F  
Max Temperature 64 °F 66 °F 84 °F (1991)
Min Temperature 51 °F 40 °F 25 °F (1976)
Degree Days  
Heating Degree Days 8 12  
Month to date heating degree days 243  
Since 1 July heating degree days 296  
Cooling Degree Days 0 0  
Month to date cooling degree days 9  
Year to date cooling degree days 977  
Growing Degree Days 8 (Base 50)    
Moisture  
Dew Point 50 °F    
Average Humidity 86    
Maximum Humidity 100    
Minimum Humidity 56    
Precipitation  
Precipitation 0.00 in 0.07 in 1.05 in (1973)
Month to date precipitation 1.87  
Year to date precipitation 34.31  
Snow  
Snow 0.00 in 0.00 in - ()
Month to date snowfall 0.1  
Since 1 July snowfall 0.1  
Since 1 September snowfall 0.1  
Snow Depth -    
Sea Level Pressure  
Sea Level Pressure 30.22 in    
Wind  
Wind Speed 0 mph (SE)    
Max Wind Speed 8 mph    
Max Gust Speed -    
Visibility 9 miles    
Events Rain    
T = Trace of Precipitation, MM = Missing Value Source: NWS Daily Summary

Daily Weather History Graph

Daily Weather History Graph

Search for Another Location

Airport:

Trip Planner

Search our weather history database for the weather conditions in past years. The results will help you decide how hot, cold, wet, or windy it might be!

Date:

Astronomy

Oct. 28, 2013 Rise Set
Actual Time 7:48 AM EDT 6:36 PM EDT
Civil Twilight 7:21 AM EDT 7:02 PM EDT
Nautical Twilight 6:51 AM EDT 7:32 PM EDT
Astronomical Twilight 6:21 AM EDT 8:02 PM EDT
Moon 1:49 AM EDT (10/28) 3:08 PM EDT (10/28)
Length of Visible Light 11h 41m
Length of Day
10h 48m
Waning Crescent, 34% of the Moon is Illuminated
Oct 28
Waning Crescent
Nov 3
New
Nov 10
First Quarter
Nov 17
Full
Nov 25
Last Quarter

Hourly Weather History & Observations

Time (EDT) Temp. Dew Point Humidity Pressure Visibility Wind Dir Wind Speed Gust Speed Precip Events Conditions
12:15 AM 51.8 °F 46.4 °F 82% 30.15 in 10.0 mi Calm Calm - N/A   Overcast
12:35 AM 51.8 °F 46.4 °F 82% 30.15 in 10.0 mi Calm Calm - N/A   Overcast
12:55 AM 51.8 °F 46.4 °F 82% 30.15 in 10.0 mi Calm Calm - N/A   Overcast
1:15 AM 51.8 °F 46.4 °F 82% 30.15 in 10.0 mi Calm Calm - N/A   Overcast
1:35 AM 51.8 °F 46.4 °F 82% 30.15 in 10.0 mi Calm Calm - N/A   Overcast
1:55 AM 51.8 °F 48.2 °F 88% 30.15 in 10.0 mi Calm Calm - N/A   Overcast
2:15 AM 51.8 °F 46.4 °F 82% 30.15 in 10.0 mi Calm Calm - N/A   Overcast
2:35 AM 51.8 °F 48.2 °F 88% 30.16 in 10.0 mi Calm Calm - N/A   Light Drizzle
2:55 AM 51.8 °F 48.2 °F 88% 30.16 in 10.0 mi Calm Calm - N/A   Overcast
3:15 AM 51.8 °F 48.2 °F 88% 30.15 in 10.0 mi Calm Calm - N/A   Overcast
3:35 AM 51.8 °F 48.2 °F 88% 30.15 in 10.0 mi Calm Calm - N/A   Overcast
3:55 AM 51.8 °F 48.2 °F 88% 30.16 in 10.0 mi Calm Calm - N/A   Overcast
4:15 AM 51.8 °F 48.2 °F 88% 30.15 in 10.0 mi Calm Calm - N/A   Overcast
4:35 AM 51.8 °F 48.2 °F 88% 30.16 in 10.0 mi Calm Calm - N/A   Overcast
4:55 AM 51.8 °F 48.2 °F 88% 30.17 in 10.0 mi Calm Calm - N/A   Overcast
5:15 AM 51.8 °F 48.2 °F 88% 30.17 in 10.0 mi Calm Calm - N/A   Overcast
5:35 AM 51.8 °F 48.2 °F 88% 30.17 in 10.0 mi Calm Calm - N/A   Overcast
5:55 AM 51.8 °F 48.2 °F 88% 30.18 in 10.0 mi Calm Calm - N/A   Overcast
6:15 AM 51.8 °F 48.2 °F 88% 30.18 in 10.0 mi Calm Calm - N/A   Overcast
6:35 AM 51.8 °F 48.2 °F 88% 30.19 in 10.0 mi Calm Calm - N/A   Overcast
6:55 AM 51.8 °F 48.2 °F 88% 30.19 in 10.0 mi Calm Calm - N/A   Overcast
7:15 AM 51.8 °F 48.2 °F 88% 30.20 in 10.0 mi Calm Calm - N/A   Overcast
7:35 AM 51.8 °F 48.2 °F 88% 30.21 in 10.0 mi Calm Calm - N/A   Overcast
7:55 AM 51.8 °F 50.0 °F 94% 30.21 in 10.0 mi Calm Calm - N/A   Overcast
8:15 AM 51.8 °F 50.0 °F 94% 30.22 in 8.0 mi Calm Calm - N/A   Light Drizzle
8:35 AM 51.8 °F 50.0 °F 94% 30.23 in 9.0 mi Calm Calm - N/A   Overcast
8:55 AM 53.6 °F 50.0 °F 88% 30.24 in 4.0 mi Calm Calm - N/A   Light Drizzle
9:15 AM 51.8 °F 51.8 °F 100% 30.24 in 7.0 mi Calm Calm - N/A Rain Light Rain
9:35 AM 51.8 °F 51.8 °F 100% 30.25 in 4.0 mi Calm Calm - N/A Rain Light Rain
9:55 AM 51.8 °F 51.8 °F 100% 30.26 in 3.0 mi Calm Calm - N/A Rain Light Rain
10:15 AM 51.8 °F 51.8 °F 100% 30.26 in 5.0 mi Calm Calm - N/A Rain Light Rain
10:35 AM 51.8 °F 51.8 °F 100% 30.27 in 3.0 mi Calm Calm - N/A   Light Drizzle
10:55 AM 51.8 °F 51.8 °F 100% 30.27 in 3.0 mi East 3.5 mph - N/A   Light Drizzle
11:15 AM 53.6 °F 53.6 °F 100% 30.27 in 3.0 mi East 3.5 mph - N/A   Light Drizzle
11:35 AM 53.6 °F 53.6 °F 100% 30.27 in 2.0 mi East 3.5 mph - N/A   Light Drizzle
11:55 AM 53.6 °F 53.6 °F 100% 30.28 in 5.0 mi Calm Calm - N/A   Overcast
12:15 PM 53.6 °F 53.6 °F 100% 30.27 in 9.0 mi Calm Calm - N/A   Overcast
12:35 PM 55.4 °F 53.6 °F 94% 30.27 in 10.0 mi East 3.5 mph - N/A   Overcast
12:55 PM 55.4 °F 53.6 °F 94% 30.26 in 10.0 mi East 3.5 mph - N/A   Overcast
1:15 PM 57.2 °F 51.8 °F 82% 30.25 in 10.0 mi Calm Calm - N/A   Overcast
1:35 PM 59.0 °F 51.8 °F 77% 30.24 in 10.0 mi Calm Calm - N/A   Mostly Cloudy
1:55 PM 59.0 °F 51.8 °F 77% 30.24 in 10.0 mi Calm Calm - N/A   Mostly Cloudy
2:15 PM 60.8 °F 51.8 °F 72% 30.23 in 10.0 mi Calm Calm - N/A   Mostly Cloudy
2:35 PM 60.8 °F 51.8 °F 72% 30.23 in 0.2 mi Calm Calm - N/A   Haze
2:55 PM 62.6 °F 51.8 °F 68% 30.22 in 0.2 mi Calm Calm - N/A   Haze
3:15 PM 62.6 °F 50.0 °F 63% 30.22 in 10.0 mi SSW 8.1 mph - N/A   Mostly Cloudy
3:35 PM 62.6 °F 50.0 °F 63% 30.21 in 10.0 mi SW 4.6 mph - N/A   Mostly Cloudy
3:55 PM 62.6 °F 48.2 °F 59% 30.21 in 10.0 mi South 4.6 mph - N/A   Mostly Cloudy
4:15 PM 64.4 °F 48.2 °F 56% 30.20 in 10.0 mi WSW 6.9 mph - N/A   Mostly Cloudy
4:35 PM 62.6 °F 48.2 °F 59% 30.21 in 10.0 mi WNW 3.5 mph - N/A   Overcast
4:55 PM 62.6 °F 48.2 °F 59% 30.21 in 10.0 mi West 3.5 mph - N/A   Overcast
5:15 PM 60.8 °F 48.2 °F 63% 30.22 in 10.0 mi Calm Calm - N/A   Overcast
5:35 PM 60.8 °F 50.0 °F 68% 30.22 in 10.0 mi Calm Calm - N/A   Overcast
5:55 PM 60.8 °F 51.8 °F 72% 30.22 in 10.0 mi Calm Calm - N/A   Overcast
6:15 PM 57.2 °F 51.8 °F 82% 30.23 in 10.0 mi Calm Calm - N/A   Overcast
6:35 PM 57.2 °F 51.8 °F 82% 30.23 in 10.0 mi Calm Calm - N/A   Overcast
6:55 PM 57.2 °F 51.8 °F 82% 30.24 in 10.0 mi Calm Calm - N/A   Overcast
7:15 PM 55.4 °F 51.8 °F 88% 30.24 in 10.0 mi Calm Calm - N/A   Overcast
7:35 PM 55.4 °F 51.8 °F 88% 30.24 in 10.0 mi East 4.6 mph - N/A   Overcast
7:55 PM 55.4 °F 51.8 °F 88% 30.24 in 10.0 mi Calm Calm - N/A   Overcast
8:15 PM 53.6 °F 50.0 °F 88% 30.25 in 10.0 mi Calm Calm - N/A   Scattered Clouds
8:35 PM 51.8 °F 50.0 °F 94% 30.26 in 10.0 mi Calm Calm - N/A   Mostly Cloudy
8:55 PM 53.6 °F 51.8 °F 94% 30.27 in 10.0 mi Calm Calm - N/A   Overcast
9:15 PM 53.6 °F 50.0 °F 88% 30.27 in 10.0 mi Calm Calm - N/A   Overcast
9:35 PM 53.6 °F 50.0 °F 88% 30.28 in 10.0 mi Calm Calm - N/A   Overcast
9:55 PM 53.6 °F 51.8 °F 94% 30.28 in 10.0 mi Calm Calm - N/A   Overcast
10:15 PM 53.6 °F 51.8 °F 94% 30.27 in 10.0 mi Calm Calm - N/A   Overcast
10:35 PM 53.6 °F 51.8 °F 94% 30.28 in 10.0 mi Calm Calm - N/A   Overcast
10:55 PM 53.6 °F 51.8 °F 94% 30.28 in 10.0 mi Calm Calm - N/A   Overcast
11:15 PM 53.6 °F 51.8 °F 94% 30.29 in 10.0 mi Calm Calm - N/A   Overcast
11:35 PM 53.6 °F 51.8 °F 94% 30.28 in 10.0 mi Calm Calm - N/A   Overcast
11:55 PM 53.6 °F 51.8 °F 94% 30.29 in 10.0 mi Calm Calm - N/A   Overcast